IBE0270 SBGL-LEMD

Flight info

Callsign IBE0270
Flight time N/A
Altitude 37000
Route IMBAP DCT EDRAG DCT ANBEX DCT FNR/N0489F390 DCT NEURA DCT 01N030W DCT GAKAS DCT 16N022W/N0482F400 DCT NOCUT DCT CABEL DCT LAY DCT AMLOK DCT AGALI DCT SAK DCT VJF DCT HIJ DCT SOTUK
Aircraft A359/H-SDE2E3GHIJ3J4J5LM1ORWXY/LB1D1

Departure

Time 2026-05-01 14:37
Airport Rio Galeão – Tom Jobim International Airport (SBGL)

Arrival

Time N/A
Airport Adolfo Suárez Madrid–Barajas Airport (LEMD)
Time Latitude Longitude Altitude Speed Heading
2026-05-01 12:46 -22.81898 -43.24284 28 ft 0 kts 304°
2026-05-01 13:01 -22.81889 -43.24298 28 ft 0 kts 304°
2026-05-01 14:20 -22.81891 -43.24295 28 ft 2 kts 304°
2026-05-01 14:21 -22.81906 -43.24272 25 ft 4 kts 304°
2026-05-01 14:21 -22.81922 -43.24248 26 ft 4 kts 304°
2026-05-01 14:21 -22.81938 -43.24225 26 ft 4 kts 304°
2026-05-01 14:22 -22.81946 -43.24212 24 ft 0 kts 304°
2026-05-01 14:26 -22.81946 -43.24218 24 ft 1 kts 276°
2026-05-01 14:27 -22.81961 -43.24232 27 ft 7 kts 215°
2026-05-01 14:27 -22.82033 -43.24266 28 ft 13 kts 214°
2026-05-01 14:27 -22.82080 -43.24332 27 ft 11 kts 261°
2026-05-01 14:28 -22.82006 -43.24485 27 ft 13 kts 306°
2026-05-01 14:28 -22.81955 -43.24565 27 ft 11 kts 294°
2026-05-01 14:28 -22.81954 -43.24649 27 ft 12 kts 280°
2026-05-01 14:28 -22.81913 -43.24726 27 ft 12 kts 305°
2026-05-01 14:29 -22.81861 -43.24807 27 ft 14 kts 306°
2026-05-01 14:29 -22.81803 -43.24893 27 ft 15 kts 306°
2026-05-01 14:30 -22.81614 -43.25179 27 ft 14 kts 305°
2026-05-01 14:30 -22.81553 -43.25270 27 ft 15 kts 306°
2026-05-01 14:30 -22.81489 -43.25368 27 ft 16 kts 306°
2026-05-01 14:31 -22.81350 -43.25577 27 ft 16 kts 306°
2026-05-01 14:31 -22.81288 -43.25672 28 ft 15 kts 305°
2026-05-01 14:31 -22.81227 -43.25765 28 ft 16 kts 306°
2026-05-01 14:31 -22.81169 -43.25852 28 ft 11 kts 305°
2026-05-01 14:32 -22.81118 -43.25914 28 ft 10 kts 332°
2026-05-01 14:32 -22.81057 -43.25903 29 ft 9 kts 26°
2026-05-01 14:32 -22.81001 -43.25863 29 ft 10 kts 35°
2026-05-01 14:32 -22.80940 -43.25817 29 ft 11 kts 35°
2026-05-01 14:33 -22.80874 -43.25766 29 ft 12 kts 36°
2026-05-01 14:33 -22.80808 -43.25715 32 ft 10 kts 36°
2026-05-01 14:33 -22.80753 -43.25673 34 ft 9 kts 36°
2026-05-01 14:33 -22.80699 -43.25631 35 ft 13 kts 34°
2026-05-01 14:34 -22.80610 -43.25563 35 ft 15 kts 36°
2026-05-01 14:34 -22.80533 -43.25540 37 ft 11 kts 348°
2026-05-01 14:34 -22.80463 -43.25581 37 ft 12 kts 327°
2026-05-01 14:34 -22.80393 -43.25612 35 ft 11 kts 359°
2026-05-01 14:35 -22.80358 -43.25598 34 ft 0 kts 30°
2026-05-01 14:35 -22.80356 -43.25598 34 ft 2 kts 30°
2026-05-01 14:35 -22.80307 -43.25562 32 ft 13 kts 37°
2026-05-01 14:35 -22.80232 -43.25498 31 ft 13 kts 37°
2026-05-01 14:36 -22.80177 -43.25442 31 ft 10 kts 56°
2026-05-01 14:36 -22.80133 -43.25297 31 ft 44 kts 74°
2026-05-01 14:36 -22.79996 -43.24764 35 ft 101 kts 74°
2026-05-01 14:36 -22.79757 -43.23849 34 ft 150 kts 74°
2026-05-01 14:37 -22.79451 -43.22631 262 ft 174 kts 75°
2026-05-01 14:37 -22.79105 -43.21367 781 ft 176 kts 74°
2026-05-01 14:37 -22.78783 -43.20060 1292 ft 182 kts 78°
2026-05-01 14:37 -22.78518 -43.18691 1721 ft 190 kts 82°
2026-05-01 14:38 -22.78294 -43.17236 2083 ft 202 kts 83°
2026-05-01 14:38 -22.78091 -43.15694 2503 ft 211 kts 85°
2026-05-01 14:38 -22.77939 -43.14083 2955 ft 219 kts 83°
2026-05-01 14:38 -22.77619 -43.12432 3391 ft 232 kts 75°
2026-05-01 14:39 -22.77147 -43.10702 3640 ft 252 kts 73°
2026-05-01 14:39 -22.76635 -43.08811 4057 ft 263 kts 75°
2026-05-01 14:39 -22.76153 -43.06881 4642 ft 267 kts 76°
2026-05-01 14:39 -22.75614 -43.04936 5186 ft 273 kts 68°
2026-05-01 14:40 -22.74535 -43.03239 5772 ft 278 kts 42°
2026-05-01 14:40 -22.72843 -43.02231 6362 ft 281 kts 17°
2026-05-01 14:40 -22.70932 -43.01713 6958 ft 285 kts 12°
2026-05-01 14:40 -22.69015 -43.01269 7587 ft 287 kts 12°
2026-05-01 14:41 -22.67061 -43.00809 8260 ft 288 kts 12°
2026-05-01 14:41 -22.65093 -43.00337 8937 ft 291 kts 12°
2026-05-01 14:41 -22.63108 -42.99853 9605 ft 294 kts 12°
2026-05-01 14:41 -22.61107 -42.99360 10262 ft 296 kts 12°
2026-05-01 14:42 -22.59052 -42.98854 10606 ft 311 kts 12°
2026-05-01 14:42 -22.56889 -42.98320 10885 ft 327 kts 12°
2026-05-01 14:42 -22.54623 -42.97760 11159 ft 341 kts 12°
2026-05-01 14:42 -22.52264 -42.97177 11404 ft 355 kts 12°
2026-05-01 14:43 -22.49808 -42.96570 11607 ft 369 kts 12°
2026-05-01 14:43 -22.47269 -42.95940 11902 ft 379 kts 12°
2026-05-01 14:43 -22.44688 -42.95301 12403 ft 381 kts 12°
2026-05-01 14:43 -22.42101 -42.94659 12895 ft 384 kts 11°
2026-05-01 14:44 -22.39484 -42.94012 13391 ft 386 kts 11°
2026-05-01 14:44 -22.34214 -42.92724 14292 ft 391 kts
2026-05-01 14:44 -22.31509 -42.92471 14647 ft 392 kts 355°
2026-05-01 14:45 -22.28794 -42.92790 15012 ft 393 kts 350°
2026-05-01 14:45 -22.23370 -42.93710 15805 ft 397 kts 349°
2026-05-01 14:45 -22.20627 -42.94146 16150 ft 400 kts 351°
2026-05-01 14:46 -22.17831 -42.94228 16507 ft 405 kts
2026-05-01 14:46 -22.12382 -42.92519 17215 ft 417 kts 26°
2026-05-01 14:46 -22.09888 -42.90896 17556 ft 421 kts 30°
2026-05-01 14:47 -22.07422 -42.89172 17882 ft 424 kts 30°
2026-05-01 14:47 -22.04942 -42.87434 18232 ft 425 kts 30°
2026-05-01 14:47 -22.02454 -42.85697 18581 ft 427 kts 30°
2026-05-01 14:48 -21.97431 -42.82212 19163 ft 431 kts 30°
2026-05-01 14:48 -21.94902 -42.80460 19468 ft 433 kts 30°
2026-05-01 14:48 -21.89803 -42.76936 20087 ft 437 kts 30°
2026-05-01 14:49 -21.84668 -42.73390 20724 ft 440 kts 30°
2026-05-01 14:49 -21.79495 -42.69821 21352 ft 444 kts 30°
2026-05-01 14:50 -21.76042 -42.67443 21760 ft 446 kts 30°
2026-05-01 14:50 -21.69003 -42.62594 22610 ft 452 kts 30°
2026-05-01 14:51 -21.66348 -42.60768 22945 ft 454 kts 30°
2026-05-01 14:51 -21.61015 -42.57144 23582 ft 458 kts 28°
2026-05-01 14:52 -21.55422 -42.53806 24128 ft 462 kts 26°
2026-05-01 14:52 -21.52579 -42.52177 24377 ft 464 kts 26°
2026-05-01 14:52 -21.46868 -42.48873 24942 ft 469 kts 26°
2026-05-01 14:53 -21.44003 -42.47191 25264 ft 470 kts 26°
2026-05-01 14:53 -21.41129 -42.45489 25584 ft 473 kts 26°
2026-05-01 14:53 -21.38242 -42.43773 25904 ft 476 kts 27°
2026-05-01 14:53 -21.35343 -42.42048 26055 ft 477 kts 27°
2026-05-01 14:54 -21.33424 -42.40906 26076 ft 477 kts 27°
2026-05-01 14:54 -21.30520 -42.39179 26082 ft 477 kts 26°
2026-05-01 14:54 -21.27574 -42.37431 26082 ft 478 kts 26°
2026-05-01 14:54 -21.24665 -42.35706 26083 ft 478 kts 27°
2026-05-01 14:55 -21.21794 -42.34004 26082 ft 478 kts 27°
2026-05-01 14:55 -21.18850 -42.32258 26089 ft 477 kts 27°
2026-05-01 14:55 -21.15983 -42.30560 26084 ft 477 kts 27°
2026-05-01 14:55 -21.13077 -42.28839 26098 ft 477 kts 27°
2026-05-01 14:56 -21.10169 -42.27118 26091 ft 477 kts 27°
2026-05-01 14:56 -21.07265 -42.25400 26090 ft 477 kts 27°
2026-05-01 14:56 -21.04354 -42.23680 26098 ft 477 kts 27°
2026-05-01 14:56 -21.01451 -42.21966 26095 ft 477 kts 27°
2026-05-01 14:57 -20.98550 -42.20253 26096 ft 476 kts 27°
2026-05-01 14:57 -20.92744 -42.16827 26105 ft 476 kts 27°
2026-05-01 14:57 -20.89840 -42.15114 26104 ft 476 kts 27°
2026-05-01 14:58 -20.86940 -42.13405 26110 ft 476 kts 27°
2026-05-01 14:58 -20.84037 -42.11694 26106 ft 476 kts 27°
2026-05-01 14:58 -20.81140 -42.09987 26110 ft 475 kts 27°
2026-05-01 14:58 -20.78246 -42.08284 26123 ft 475 kts 27°
2026-05-01 14:59 -20.75352 -42.06581 26121 ft 475 kts 27°
2026-05-01 14:59 -20.72462 -42.04880 26121 ft 474 kts 27°
2026-05-01 14:59 -20.69571 -42.03179 26132 ft 474 kts 27°
2026-05-01 14:59 -20.66678 -42.01479 26133 ft 474 kts 27°
2026-05-01 15:00 -20.60895 -41.98083 26135 ft 474 kts 27°
2026-05-01 15:00 -20.58008 -41.96390 26137 ft 473 kts 27°
2026-05-01 15:00 -20.55122 -41.94697 26135 ft 473 kts 27°
2026-05-01 15:01 -20.52236 -41.93004 26139 ft 473 kts 27°
2026-05-01 15:01 -20.49352 -41.91313 26137 ft 473 kts 27°
2026-05-01 15:01 -20.46469 -41.89624 26138 ft 473 kts 27°
2026-05-01 15:01 -20.43584 -41.87934 26141 ft 473 kts 27°
2026-05-01 15:02 -20.40696 -41.86243 26140 ft 473 kts 27°
2026-05-01 15:02 -20.38787 -41.85126 26142 ft 473 kts 27°
2026-05-01 15:02 -20.34935 -41.82873 26138 ft 472 kts 27°
2026-05-01 15:02 -20.32054 -41.81189 26136 ft 472 kts 27°
2026-05-01 15:03 -20.29177 -41.79507 26131 ft 472 kts 27°
2026-05-01 15:03 -20.26295 -41.77824 26133 ft 472 kts 27°
2026-05-01 15:03 -20.23414 -41.76141 26136 ft 472 kts 27°
2026-05-01 15:03 -20.20536 -41.74461 26122 ft 472 kts 27°
2026-05-01 15:04 -20.17656 -41.72782 26125 ft 471 kts 27°
2026-05-01 15:04 -20.14820 -41.71127 26126 ft 471 kts 27°
2026-05-01 15:04 -20.11950 -41.69454 26119 ft 471 kts 27°
2026-05-01 15:04 -20.09077 -41.67780 26117 ft 471 kts 27°
2026-05-01 15:05 -20.06203 -41.66106 26117 ft 471 kts 27°
2026-05-01 15:05 -20.03330 -41.64434 26107 ft 471 kts 27°
2026-05-01 15:05 -20.00458 -41.62763 26107 ft 471 kts 27°
2026-05-01 15:05 -19.97590 -41.61095 26107 ft 470 kts 27°
2026-05-01 15:06 -19.94719 -41.59425 26102 ft 470 kts 27°
2026-05-01 15:06 -19.91854 -41.57760 26102 ft 469 kts 27°
2026-05-01 15:06 -19.88989 -41.56095 26101 ft 469 kts 27°
2026-05-01 15:06 -19.86123 -41.54431 26091 ft 469 kts 27°
2026-05-01 15:07 -19.83259 -41.52768 26091 ft 469 kts 27°
2026-05-01 15:07 -19.80397 -41.51107 26090 ft 469 kts 27°
2026-05-01 15:07 -19.77529 -41.49445 26091 ft 469 kts 27°
2026-05-01 15:07 -19.74670 -41.47788 26087 ft 469 kts 28°
2026-05-01 15:08 -19.71809 -41.46130 26087 ft 468 kts 28°
2026-05-01 15:08 -19.68950 -41.44474 26090 ft 468 kts 28°
2026-05-01 15:08 -19.66092 -41.42819 26086 ft 468 kts 28°
2026-05-01 15:08 -19.63250 -41.41174 26097 ft 468 kts 28°
2026-05-01 15:09 -19.60383 -41.39515 26291 ft 471 kts 28°
2026-05-01 15:09 -19.57504 -41.37850 26657 ft 472 kts 28°
2026-05-01 15:09 -19.54609 -41.36176 27004 ft 474 kts 28°
2026-05-01 15:09 -19.51705 -41.34499 27338 ft 477 kts 27°
2026-05-01 15:10 -19.48783 -41.32810 27668 ft 480 kts 27°
2026-05-01 15:10 -19.42889 -41.29408 28317 ft 485 kts 27°
2026-05-01 15:10 -19.39922 -41.27697 28639 ft 487 kts 27°
2026-05-01 15:11 -19.36934 -41.25974 28956 ft 490 kts 27°
2026-05-01 15:11 -19.30921 -41.22510 29616 ft 493 kts 28°
2026-05-01 15:11 -19.27898 -41.20769 29909 ft 496 kts 28°
2026-05-01 15:12 -19.24863 -41.19022 30175 ft 498 kts 28°
2026-05-01 15:12 -19.18742 -41.15500 30596 ft 503 kts 28°
2026-05-01 15:12 -19.15657 -41.13726 30817 ft 506 kts 28°
2026-05-01 15:13 -19.06317 -41.08361 31415 ft 512 kts 28°
2026-05-01 15:14 -19.00047 -41.04762 31978 ft 512 kts 28°
2026-05-01 15:14 -18.96916 -41.02966 32279 ft 512 kts 28°
2026-05-01 15:14 -18.90657 -40.99379 32834 ft 512 kts 28°
2026-05-01 15:15 -18.84393 -40.95794 33347 ft 512 kts 28°
2026-05-01 15:15 -18.78127 -40.92210 33893 ft 512 kts 28°
2026-05-01 15:16 -18.71901 -40.88651 34308 ft 513 kts 28°
2026-05-01 15:16 -18.65638 -40.85074 34818 ft 510 kts 28°
2026-05-01 15:17 -18.59411 -40.81521 35307 ft 508 kts 28°
2026-05-01 15:18 -18.50093 -40.76210 35925 ft 507 kts 28°
2026-05-01 15:18 -18.46993 -40.74444 36141 ft 506 kts 28°
2026-05-01 15:19 -18.37728 -40.69170 36776 ft 503 kts 28°
2026-05-01 15:19 -18.31565 -40.65666 37065 ft 504 kts 28°
2026-05-01 15:19 -18.28472 -40.63909 37090 ft 507 kts 28°
2026-05-01 15:20 -18.19131 -40.58606 37088 ft 508 kts 28°
2026-05-01 15:21 -18.12912 -40.55079 37089 ft 508 kts 28°
2026-05-01 15:21 -18.06690 -40.51553 37086 ft 508 kts 28°
2026-05-01 15:22 -17.97359 -40.46271 37082 ft 508 kts 28°
2026-05-01 15:22 -17.91131 -40.42750 37083 ft 508 kts 28°
2026-05-01 15:23 -17.84906 -40.39232 37084 ft 508 kts 28°
2026-05-01 15:23 -17.78717 -40.35737 37085 ft 508 kts 28°
2026-05-01 15:24 -17.72490 -40.32224 37084 ft 508 kts 28°
2026-05-01 15:24 -17.66267 -40.28716 37084 ft 508 kts 28°
2026-05-01 15:25 -17.60043 -40.25210 37084 ft 508 kts 28°
2026-05-01 15:25 -17.53816 -40.21706 37081 ft 508 kts 28°
2026-05-01 15:26 -17.47593 -40.18206 37080 ft 507 kts 28°
2026-05-01 15:26 -17.41376 -40.14712 37083 ft 507 kts 28°
2026-05-01 15:27 -17.35161 -40.11223 37084 ft 507 kts 28°
2026-05-01 15:28 -17.25834 -40.05990 37085 ft 507 kts 28°
2026-05-01 15:28 -17.19616 -40.02506 37090 ft 507 kts 28°
2026-05-01 15:29 -17.10287 -39.97282 37089 ft 507 kts 28°
2026-05-01 15:30 -16.97852 -39.90330 37085 ft 506 kts 29°
2026-05-01 15:31 -16.79095 -39.80142 37088 ft 506 kts 28°
2026-05-01 15:32 -16.66600 -39.73372 37081 ft 506 kts 28°
2026-05-01 15:34 -16.47874 -39.63239 37079 ft 505 kts 28°